Weather reports worldwide

Advertisment
Carlisle, United Kingdom (3220): temperature & dewpoint: 17.04.2018 14:00:00 - 23.04.2018 14:00:00 (BST)Carlisle, United Kingdom (3220): temperature -100cm: 17.04.2018 14:00:00 - 23.04.2018 14:00:00 (BST)Carlisle, United Kingdom (3220): reduced air pressure: 17.04.2018 14:00:00 - 23.04.2018 14:00:00 (BST)Carlisle, United Kingdom (3220): visibility: 17.04.2018 14:00:00 - 23.04.2018 14:00:00 (BST)Carlisle, United Kingdom (3220): precipitation: 17.04.2018 14:00:00 - 23.04.2018 14:00:00 (BST)
Date & Time tt [°C] td [°C] tt -100cm [°C] ppp [hPa] vv [km] rr [mm]
23.04.2018 14:00:00 11,4 3,5 - 1010,3 50 0,0
23.04.2018 13:00:00 11,1 5,9 - 1010,6 50 0,0
23.04.2018 12:00:00 10,5 6,4 - 1010,7 50 0,0
23.04.2018 11:00:00 10,1 6,2 - 1010,5 50 0,0
23.04.2018 10:00:00 9,8 6,8 - 1010,3 50 0,0
23.04.2018 09:00:00 9,5 6,9 - 1009,8 50 0,0
23.04.2018 08:00:00 8,7 6,7 - 1009,4 45 0,0
23.04.2018 07:00:00 8,4 6,5 - 1008,7 40 0,0
23.04.2018 06:00:00 8,4 6,5 - 1008,0 40 0,0
23.04.2018 05:00:00 8,7 6,6 - 1007,6 45 0,0
23.04.2018 04:00:00 8,6 6,8 - 1007,4 40 0,0
23.04.2018 03:00:00 8,8 6,7 - 1007,0 45 0,0
23.04.2018 02:00:00 8,7 6,9 - 1007,3 40 0,0
23.04.2018 01:00:00 8,8 7,3 - 1006,8 45 0,0
23.04.2018 00:00:00 8,5 7,3 - 1006,3 50 2,6
22.04.2018 23:00:00 9,1 7,8 - 1006,3 2,8 1,0
22.04.2018 22:00:00 9,8 7,1 - 1005,9 45 0,0
22.04.2018 21:00:00 10,1 6,9 - 1005,7 50 0,2
22.04.2018 20:00:00 11,0 5,8 - 1005,7 50 0,0
22.04.2018 19:00:00 11,5 6,3 - 1005,4 50 0,0
22.04.2018 18:00:00 11,9 6,3 - 1005,3 50 0,0
22.04.2018 17:00:00 12,6 6,8 - 1005,4 50 0,0
22.04.2018 16:00:00 12,6 7,8 - 1005,3 50 0,0
22.04.2018 15:00:00 11,7 8,2 - 1005,4 50 0,0
22.04.2018 14:00:00 11,4 7,6 - 1005,3 50 0,0
22.04.2018 13:00:00 10,8 7,2 - 1005,1 30 0,0
22.04.2018 12:00:00 10,3 6,1 - 1005,5 50 0,0
22.04.2018 11:00:00 10,2 5,8 - 1005,8 50 0,2
22.04.2018 10:00:00 11,6 3,9 8,7 1005,6 50 0,0
22.04.2018 09:00:00 12,1 2,3 - 1005,4 50 0,0
22.04.2018 08:00:00 13,3 5,0 - 1005,1 50 0,0
22.04.2018 07:00:00 13,9 10,9 - 1005,2 12 0,0
22.04.2018 06:00:00 13,3 10,9 - 1005,5 7 0,0
22.04.2018 05:00:00 13,1 9,6 - 1006,1 14 0,0
22.04.2018 04:00:00 12,7 10,4 - 1006,9 9 0,0
22.04.2018 03:00:00 16,3 12,7 - 1007,0 15 0,0
22.04.2018 02:00:00 16,2 12,3 - 1007,8 17 0,0
22.04.2018 01:00:00 16,3 12,5 - 1008,6 16 0,0
22.04.2018 00:00:00 16,6 12,5 - 1009,3 20 0,0
21.04.2018 23:00:00 15,1 11,3 - 1010,0 23 0,0
21.04.2018 22:00:00 14,0 9,1 - 1011,0 27 0,0
21.04.2018 21:00:00 14,6 9,0 - 1011,7 29 0,0
21.04.2018 20:00:00 15,5 9,4 - 1012,4 30 0,0
21.04.2018 19:00:00 16,6 8,7 - 1013,2 45 0,0
21.04.2018 18:00:00 18,2 8,3 - 1014,0 50 0,0
21.04.2018 17:00:00 19,2 8,7 - 1014,8 50 0,0
21.04.2018 16:00:00 20,4 5,9 - 1015,6 50 0,0
21.04.2018 15:00:00 19,6 5,5 - 1017,0 50 0,0
21.04.2018 14:00:00 18,7 6,0 - 1018,0 50 0,0
21.04.2018 13:00:00 17,1 5,7 - 1019,1 50 0,0
21.04.2018 12:00:00 16,4 3,7 - 1020,2 50 0,0
21.04.2018 11:00:00 15,4 5,6 - 1021,2 50 0,0
21.04.2018 10:00:00 13,5 6,7 8,5 1021,8 50 0,0
21.04.2018 09:00:00 11,1 6,8 - 1022,3 40 0,0
21.04.2018 08:00:00 7,9 5,9 - 1022,8 35 0,0
21.04.2018 07:00:00 4,6 3,7 - 1022,9 29 0,0
21.04.2018 06:00:00 5,1 4,4 - 1023,0 25 0,0
21.04.2018 05:00:00 5,0 4,3 - 1023,2 15 0,0
21.04.2018 04:00:00 5,8 5,2 - 1023,8 13 0,0
21.04.2018 03:00:00 6,3 5,7 - 1024,0 14 0,0
21.04.2018 02:00:00 6,6 5,8 - 1024,4 13 0,0
21.04.2018 01:00:00 7,4 6,4 - 1024,7 17 0,0
21.04.2018 00:00:00 7,8 6,4 - 1024,9 24 0,0
20.04.2018 23:00:00 8,5 7,2 - 1024,9 28 0,0
20.04.2018 22:00:00 8,8 7,3 - 1024,7 25 0,0
20.04.2018 21:00:00 10,8 6,5 - 1024,3 45 0,0
20.04.2018 20:00:00 12,1 6,4 - 1023,8 28 0,0
20.04.2018 19:00:00 13,5 7,1 - 1023,7 50 0,0
20.04.2018 18:00:00 14,1 6,3 - 1023,8 50 0,0
20.04.2018 17:00:00 14,5 7,2 - 1023,9 50 0,0
20.04.2018 16:00:00 14,2 7,3 - 1023,9 45 0,0
20.04.2018 15:00:00 13,8 7,0 - 1024,1 50 0,0
20.04.2018 14:00:00 14,5 5,5 - 1024,1 50 0,0
20.04.2018 13:00:00 13,8 9,0 - 1024,1 29 0,0
20.04.2018 12:00:00 11,6 8,9 - 1024,5 18 0,0
20.04.2018 11:00:00 11,4 8,5 - 1024,5 2,6 0,0
20.04.2018 10:00:00 9,8 8,6 8,2 1024,3 2,1 0,0
20.04.2018 09:00:00 9,0 8,6 - 1024,1 18 0,0
20.04.2018 08:00:00 8,6 8,1 - 1023,9 3,6 0,0
20.04.2018 07:00:00 9,2 8,7 - 1023,8 12 0,0
20.04.2018 06:00:00 9,0 8,5 - 1023,4 21 0,0
20.04.2018 05:00:00 8,1 7,5 - 1023,4 15 0,0
20.04.2018 04:00:00 9,0 8,3 - 1023,6 15 0,0
20.04.2018 03:00:00 9,4 8,7 - 1023,5 23 0,0
20.04.2018 02:00:00 9,5 8,7 - 1024,0 24 0,0
20.04.2018 01:00:00 9,7 8,8 - 1024,3 6 0,0
20.04.2018 00:00:00 10,2 9,1 - 1024,4 40 0,0
19.04.2018 23:00:00 10,5 9,3 - 1024,6 30 0,0
19.04.2018 22:00:00 10,7 9,6 - 1024,8 30 0,0
19.04.2018 21:00:00 11,5 9,6 - 1024,6 40 0,0
19.04.2018 20:00:00 12,7 10,4 - 1024,1 35 0,0
19.04.2018 19:00:00 13,9 10,8 - 1023,9 50 0,0
19.04.2018 18:00:00 14,5 10,8 - 1023,9 50 0,0
19.04.2018 17:00:00 14,5 11,4 - 1023,8 40 0,0
19.04.2018 16:00:00 15,7 11,8 - 1023,7 45 0,0
19.04.2018 15:00:00 16,8 12,5 - 1023,5 40 0,0
19.04.2018 14:00:00 - - - - - 0,0
19.04.2018 13:00:00 - - - - - 0,0
19.04.2018 12:00:00 17,1 12,5 - 1023,0 28 0,0
19.04.2018 11:00:00 15,6 10,8 - 1023,0 30 0,0
19.04.2018 10:00:00 15,7 9,9 8,0 1022,7 30 0,0
19.04.2018 09:00:00 14,6 10,0 - 1022,3 30 -
19.04.2018 08:00:00 12,0 9,1 - 1021,9 30 0,0
19.04.2018 07:00:00 8,9 7,1 - 1021,4 30 -
19.04.2018 06:00:00 9,6 7,4 - 1020,9 30 -
19.04.2018 05:00:00 9,4 7,4 - 1021,2 30 -
19.04.2018 04:00:00 10,3 7,5 - 1021,4 30 -
19.04.2018 03:00:00 11,7 7,7 - 1021,4 35 -
19.04.2018 02:00:00 17,1 8,2 - 1021,0 50 0,0
19.04.2018 01:00:00 18,0 8,7 - 1021,1 50 0,0
19.04.2018 00:00:00 16,2 10,5 - 1021,3 45 0,0
18.04.2018 23:00:00 16,9 10,7 - 1021,0 50 0,0
18.04.2018 22:00:00 16,9 11,0 - 1020,9 45 0,0
18.04.2018 21:00:00 17,6 11,3 - 1020,9 50 0,0
18.04.2018 20:00:00 18,7 11,5 - 1021,0 50 0,0
18.04.2018 19:00:00 19,1 11,6 - 1021,1 50 0,0
18.04.2018 18:00:00 19,1 11,3 - 1021,6 50 0,0
18.04.2018 17:00:00 19,3 10,4 - 1022,2 50 0,0
18.04.2018 16:00:00 18,7 10,7 - 1023,1 50 0,0
18.04.2018 15:00:00 18,3 11,5 - 1023,3 50 0,0
18.04.2018 14:00:00 17,1 11,1 - 1023,5 50 0,0
18.04.2018 13:00:00 16,2 11,3 - 1023,6 50 0,0
18.04.2018 12:00:00 15,2 10,8 - 1022,9 50 0,0
18.04.2018 11:00:00 14,7 11,4 - 1022,1 50 0,0
18.04.2018 10:00:00 13,9 11,4 7,7 1021,5 18 0,0
18.04.2018 09:00:00 12,9 11,2 - 1020,7 50 0,0
18.04.2018 08:00:00 13,4 10,8 - 1019,7 45 0,0
18.04.2018 07:00:00 12,2 10,4 - 1019,4 27 0,0
18.04.2018 06:00:00 10,2 9,2 - 1019,1 25 0,0
18.04.2018 05:00:00 10,3 8,8 - 1019,0 17 0,2
18.04.2018 04:00:00 11,7 8,4 - 1018,8 30 0,0
18.04.2018 03:00:00 10,9 8,0 - 1018,7 30 0,0
18.04.2018 02:00:00 11,5 8,0 - 1018,0 30 0,0
18.04.2018 01:00:00 11,2 7,8 - 1017,7 29 0,0
18.04.2018 00:00:00 11,3 7,6 - 1017,2 25 0,0
17.04.2018 23:00:00 11,5 7,9 - 1016,5 25 0,0
17.04.2018 22:00:00 11,1 7,2 - 1015,5 26 0,0
17.04.2018 21:00:00 11,8 7,7 - 1014,7 29 0,0
17.04.2018 20:00:00 13,5 8,3 - 1013,7 35 0,0
17.04.2018 19:00:00 14,2 8,4 - 1012,8 30 0,0
17.04.2018 18:00:00 14,9 8,2 - 1012,0 35 0,0
17.04.2018 17:00:00 15,2 8,1 - 1011,5 35 0,0
17.04.2018 16:00:00 15,2 7,4 - 1010,9 40 0,0
17.04.2018 15:00:00 14,3 6,7 - 1010,7 50 0,0
17.04.2018 14:00:00 13,3 8,5 - 1009,9 50 0,2

tt = temperature
td = dewpoint
tt -100cm = temperature -100cm
ppp = reduced air pressure
vv = visibility
rr = precipitation

Next stations